Pitt Meadows, British Columbia

12:46 AM PST on January 24, 2018 (GMT -0800)
Pitt Meadows

Weather History for CWMM - November, 2012

Change the Weather History Date:

Tuesday, November 20, 2012

  Actual Average Record
Temperature  
Mean Temperature 43 °F -  
Max Temperature 47 °F - - ()
Min Temperature 39 °F - - ()
Degree Days  
Heating Degree Days 22    
Moisture  
Dew Point 42 °F    
Average Humidity 94    
Maximum Humidity 97    
Minimum Humidity 89    
Precipitation  
Precipitation 0.67 in - - ()
Sea Level Pressure  
Sea Level Pressure 29.62 in    
Wind  
Wind Speed 4 mph ()    
Max Wind Speed 9 mph    
Max Gust Speed -    
T = Trace of Precipitation, MM = Missing Value Source: Averaged Metar Reports

Daily Weather History Graph

Daily Weather History Graph

Search for Another Location

Airport or City:

Trip Planner

Search our weather history database for the weather conditions in past years. The results will help you decide how hot, cold, wet, or windy it might be!

Date:

Astronomy

Nov. 20, 2012 Rise Set
Actual Time 7:29 AM PST 4:23 PM PST
Civil Twilight 6:54 AM PST 4:58 PM PST
Nautical Twilight 6:14 AM PST 5:37 PM PST
Astronomical Twilight 5:37 AM PST 6:15 PM PST
Moon 12:47 PM PST (11/20) No Moon Set
Length of Visible Light 10h 04m
Length of Day
8h 53m
First Quarter, 52% of the Moon is Illuminated
Nov 20
First Quarter
Nov 28
Full
Dec 6
Last Quarter
Dec 13
New
Dec 19
First Quarter

Hourly Weather History & Observations

Time (PST) Temp. Windchill Dew Point Humidity Pressure Visibility Wind Dir Wind Speed Gust Speed Precip Events Conditions
12:00 AM 41.0 °F - 40.1 °F 97% 29.69 in - ENE 2.3 mph - N/A   Unknown
1:00 AM 41.4 °F - 40.5 °F 97% 29.69 in - NW 2.3 mph - N/A   Unknown
2:00 AM 42.3 °F - 41.4 °F 97% 29.70 in - Calm Calm - N/A   Unknown
3:00 AM 43.7 °F 42.1 °F 42.8 °F 97% 29.70 in - NNE 3.5 mph - 0.19 in   Unknown
4:00 AM 44 °F - 43 °F 97% 29.69 in - ENE 8.1 mph - -  
4:00 AM 44.2 °F 39.7 °F 43.3 °F 97% 29.69 in - ENE 8.1 mph - 0.09 in   Unknown
5:00 AM 43.3 °F 38.1 °F 42.3 °F 96% 29.69 in - NNE 9.2 mph - 0.06 in   Unknown
6:00 AM 43.0 °F 39.5 °F 41.4 °F 94% 29.69 in - NNE 5.8 mph - N/A   Unknown
7:00 AM 42.6 °F 38.4 °F 40.8 °F 93% 29.66 in - NE 6.9 mph - 0.04 in   Unknown
8:00 AM 43.3 °F 38.6 °F 41.5 °F 93% 29.64 in - NE 8.1 mph - N/A   Unknown
9:00 AM 44.6 °F 40.7 °F 42.4 °F 92% 29.60 in - NE 6.9 mph - N/A   Unknown
10:00 AM 45 °F - 43 °F 89% 29.56 in - ESE 3.5 mph - -  
10:00 AM 44.6 °F 43.1 °F 42.8 °F 93% 29.56 in - ESE 3.5 mph - N/A   Unknown
11:00 AM 45.0 °F 43.5 °F 43.2 °F 93% 29.52 in - NE 3.5 mph - N/A   Unknown
12:00 PM 45.1 °F 43.7 °F 43.5 °F 94% 29.51 in - East 3.5 mph - N/A   Unknown
1:00 PM 45.1 °F 42.0 °F 43.7 °F 95% 29.50 in - ENE 5.8 mph - 0.01 in   Unknown
2:00 PM 45.7 °F 42.7 °F 43.3 °F 92% 29.52 in - ENE 5.8 mph - 0.01 in   Unknown
3:00 PM 45.9 °F 42.9 °F 43.9 °F 93% 29.54 in - NE 5.8 mph - N/A   Unknown
4:00 PM 46 °F - 44 °F 90% 29.57 in - NW 2.3 mph - -  
4:00 PM 45.5 °F - 44.1 °F 95% 29.57 in - NW 2.3 mph - N/A   Unknown
5:00 PM 46.6 °F - 44.1 °F 91% 29.60 in - South 5.8 mph - 0.11 in   Unknown
6:00 PM 44.8 °F 42.4 °F 42.8 °F 93% 29.60 in - SSW 4.6 mph - 0.32 in   Unknown
7:00 PM 47.8 °F - 44.6 °F 89% 29.60 in - South 8.1 mph - 0.05 in   Unknown
8:00 PM 43.0 °F 40.3 °F 41.4 °F 94% 29.65 in - West 4.6 mph - 0.14 in   Unknown
9:00 PM 42.3 °F 40.5 °F 40.8 °F 95% 29.67 in - ENE 3.5 mph - 0.02 in   Unknown
10:00 PM 42 °F - 41 °F 95% 29.67 in - East 4.6 mph - -  
10:00 PM 42.3 °F 39.4 °F 41.0 °F 95% 29.67 in - East 4.6 mph - 0.02 in   Unknown
11:00 PM 41.9 °F - 40.6 °F 95% 29.66 in - East 1.2 mph - 0.06 in   Unknown